Time,TemperatureF,DewpointF,PressureIn,WindDirection,WindDirectionDegrees,WindSpeedMPH,WindSpeedGustMPH,Humidity,HourlyPrecipIn,Conditions,Clouds,dailyrainin,SolarRadiationWatts/m^2,SoftwareType,DateUTC
2013-03-23 00:02:00,40.0,26.0,-100.00,WSW,249,9.0,19.0,57,0.00,,,0.00,0.000000,,2013-03-23 07:02:00,
2013-03-23 00:12:00,40.0,26.0,-100.00,WSW,249,9.0,19.0,57,0.00,,,0.00,0.000000,,2013-03-23 07:12:00,
2013-03-23 00:22:00,40.0,26.0,-100.00,WSW,249,9.0,19.0,57,0.00,,,0.00,0.000000,,2013-03-23 07:22:00,
2013-03-23 00:32:00,40.0,26.0,-100.00,WSW,249,9.0,19.0,57,0.00,,,0.00,0.000000,,2013-03-23 07:32:00,
2013-03-23 01:02:00,40.0,28.0,-100.00,WSW,248,13.0,21.0,62,0.00,,,0.00,0.000000,,2013-03-23 08:02:00,
2013-03-23 01:12:00,40.0,28.0,-100.00,WSW,248,13.0,21.0,62,0.00,,,0.00,0.000000,,2013-03-23 08:12:00,
2013-03-23 01:22:00,40.0,28.0,-100.00,WSW,248,13.0,21.0,62,0.00,,,0.00,0.000000,,2013-03-23 08:22:00,
2013-03-23 01:31:00,40.0,28.0,-100.00,WSW,248,13.0,21.0,62,0.00,,,0.00,0.000000,,2013-03-23 08:31:00,
2013-03-23 02:02:00,38.0,27.0,-100.00,WSW,253,8.0,18.0,63,0.00,,,0.00,0.000000,,2013-03-23 09:02:00,
2013-03-23 02:12:00,38.0,27.0,-100.00,WSW,253,8.0,18.0,63,0.00,,,0.00,0.000000,,2013-03-23 09:12:00,
2013-03-23 02:22:00,38.0,27.0,-100.00,WSW,253,8.0,18.0,63,0.00,,,0.00,0.000000,,2013-03-23 09:22:00,
2013-03-23 02:32:00,38.0,27.0,-100.00,WSW,253,8.0,18.0,63,0.00,,,0.00,0.000000,,2013-03-23 09:32:00,
2013-03-23 03:03:00,37.0,26.0,-100.00,WSW,256,6.0,14.0,65,0.00,,,0.00,0.000000,,2013-03-23 10:03:00,
2013-03-23 03:12:00,37.0,26.0,-100.00,WSW,256,6.0,14.0,65,0.00,,,0.00,0.000000,,2013-03-23 10:12:00,
2013-03-23 03:23:00,37.0,26.0,-100.00,WSW,256,6.0,14.0,65,0.00,,,0.00,0.000000,,2013-03-23 10:23:00,
2013-03-23 03:33:00,37.0,26.0,-100.00,WSW,256,6.0,14.0,65,0.00,,,0.00,0.000000,,2013-03-23 10:33:00,
2013-03-23 04:03:00,36.0,27.0,-100.00,WSW,249,4.0,14.0,69,0.00,,,0.00,0.000000,,2013-03-23 11:03:00,
2013-03-23 04:12:00,36.0,27.0,-100.00,WSW,249,4.0,14.0,69,0.00,,,0.00,0.000000,,2013-03-23 11:12:00,
2013-03-23 04:22:00,36.0,27.0,-100.00,WSW,249,4.0,14.0,69,0.00,,,0.00,0.000000,,2013-03-23 11:22:00,
2013-03-23 04:32:00,36.0,27.0,-100.00,WSW,249,4.0,14.0,69,0.00,,,0.00,0.000000,,2013-03-23 11:32:00,
2013-03-23 05:02:00,35.0,24.0,-100.00,West,270,3.0,11.0,63,0.00,,,0.00,0.000000,,2013-03-23 12:02:00,
2013-03-23 05:12:00,35.0,24.0,-100.00,West,270,3.0,11.0,63,0.00,,,0.00,0.000000,,2013-03-23 12:12:00,
2013-03-23 05:22:00,35.0,24.0,-100.00,West,270,3.0,11.0,63,0.00,,,0.00,0.000000,,2013-03-23 12:22:00,
2013-03-23 05:32:00,35.0,24.0,-100.00,West,270,3.0,11.0,63,0.00,,,0.00,0.000000,,2013-03-23 12:32:00,
2013-03-23 06:02:00,35.0,21.0,-100.00,WSW,245,3.0,8.0,57,0.00,,,0.00,0.000000,,2013-03-23 13:02:00,
2013-03-23 06:12:00,35.0,21.0,-100.00,WSW,245,3.0,8.0,57,0.00,,,0.00,0.000000,,2013-03-23 13:12:00,
2013-03-23 06:22:00,35.0,21.0,-100.00,WSW,245,3.0,8.0,57,0.00,,,0.00,0.000000,,2013-03-23 13:22:00,
2013-03-23 06:32:00,35.0,21.0,-100.00,WSW,245,3.0,8.0,57,0.00,,,0.00,0.000000,,2013-03-23 13:32:00,
2013-03-23 07:03:00,36.0,18.0,-100.00,WSW,251,8.0,15.0,48,0.00,,,0.00,4.000000,,2013-03-23 14:03:00,
2013-03-23 07:12:00,36.0,18.0,-100.00,WSW,251,8.0,15.0,48,0.00,,,0.00,4.000000,,2013-03-23 14:12:00,
2013-03-23 07:22:00,36.0,18.0,-100.00,WSW,251,8.0,15.0,48,0.00,,,0.00,4.000000,,2013-03-23 14:22:00,
2013-03-23 07:32:00,36.0,18.0,-100.00,WSW,251,8.0,15.0,48,0.00,,,0.00,4.000000,,2013-03-23 14:32:00,
2013-03-23 08:03:00,43.0,11.0,-100.00,WSW,258,7.0,23.0,27,0.00,,,0.00,124.000000,,2013-03-23 15:03:00,
2013-03-23 08:12:00,43.0,11.0,-100.00,WSW,258,7.0,23.0,27,0.00,,,0.00,124.000000,,2013-03-23 15:12:00,
2013-03-23 08:22:00,43.0,11.0,-100.00,WSW,258,7.0,23.0,27,0.00,,,0.00,124.000000,,2013-03-23 15:22:00,
2013-03-23 08:33:00,43.0,11.0,-100.00,WSW,258,7.0,23.0,27,0.00,,,0.00,124.000000,,2013-03-23 15:33:00,
2013-03-23 09:03:00,48.0,4.0,-100.00,WSW,249,11.0,20.0,16,0.00,,,0.00,460.000000,,2013-03-23 16:03:00,
2013-03-23 09:12:00,48.0,4.0,-100.00,WSW,249,11.0,20.0,16,0.00,,,0.00,460.000000,,2013-03-23 16:12:00,
2013-03-23 09:22:00,48.0,4.0,-100.00,WSW,249,11.0,20.0,16,0.00,,,0.00,460.000000,,2013-03-23 16:22:00,
2013-03-23 09:32:00,48.0,4.0,-100.00,WSW,249,11.0,20.0,16,0.00,,,0.00,460.000000,,2013-03-23 16:32:00,
2013-03-23 10:02:00,51.0,4.0,-100.00,WSW,248,13.0,27.0,14,0.00,,,0.00,750.000000,,2013-03-23 17:02:00,
2013-03-23 10:12:00,51.0,4.0,-100.00,WSW,248,13.0,27.0,14,0.00,,,0.00,750.000000,,2013-03-23 17:12:00,
2013-03-23 10:22:00,51.0,4.0,-100.00,WSW,248,13.0,27.0,14,0.00,,,0.00,750.000000,,2013-03-23 17:22:00,
2013-03-23 10:32:00,51.0,4.0,-100.00,WSW,248,13.0,27.0,14,0.00,,,0.00,750.000000,,2013-03-23 17:32:00,
2013-03-23 11:02:00,52.0,10.0,-100.00,WSW,240,12.0,27.0,18,0.00,,,0.00,982.000000,,2013-03-23 18:02:00,
2013-03-23 11:12:00,52.0,10.0,-100.00,WSW,240,12.0,27.0,18,0.00,,,0.00,982.000000,,2013-03-23 18:12:00,
2013-03-23 11:22:00,52.0,10.0,-100.00,WSW,240,12.0,27.0,18,0.00,,,0.00,982.000000,,2013-03-23 18:22:00,
2013-03-23 11:32:00,52.0,10.0,-100.00,WSW,240,12.0,27.0,18,0.00,,,0.00,982.000000,,2013-03-23 18:32:00,
2013-03-23 12:02:00,55.0,11.0,-100.00,WSW,242,11.0,27.0,17,0.00,,,0.00,1134.000000,,2013-03-23 19:02:00,
2013-03-23 12:12:00,55.0,11.0,-100.00,WSW,242,11.0,27.0,17,0.00,,,0.00,1134.000000,,2013-03-23 19:12:00,
2013-03-23 12:22:00,55.0,11.0,-100.00,WSW,242,11.0,27.0,17,0.00,,,0.00,1134.000000,,2013-03-23 19:22:00,
2013-03-23 12:32:00,55.0,11.0,-100.00,WSW,242,11.0,27.0,17,0.00,,,0.00,1134.000000,,2013-03-23 19:32:00,
2013-03-23 13:02:00,53.0,16.0,-100.00,WSW,244,15.0,31.0,23,0.00,,,0.00,1218.000000,,2013-03-23 20:02:00,
2013-03-23 13:12:00,53.0,16.0,-100.00,WSW,244,15.0,31.0,23,0.00,,,0.00,1218.000000,,2013-03-23 20:12:00,
2013-03-23 13:22:00,53.0,16.0,-100.00,WSW,244,15.0,31.0,23,0.00,,,0.00,1218.000000,,2013-03-23 20:22:00,
2013-03-23 13:32:00,53.0,16.0,-100.00,WSW,244,15.0,31.0,23,0.00,,,0.00,1218.000000,,2013-03-23 20:32:00,
2013-03-23 14:02:00,52.0,13.0,-100.00,WSW,245,18.0,36.0,21,0.00,,,0.00,1212.000000,,2013-03-23 21:02:00,
2013-03-23 14:12:00,52.0,13.0,-100.00,WSW,245,18.0,36.0,21,0.00,,,0.00,1212.000000,,2013-03-23 21:12:00,
2013-03-23 14:22:00,52.0,13.0,-100.00,WSW,245,18.0,36.0,21,0.00,,,0.00,1212.000000,,2013-03-23 21:22:00,
2013-03-23 14:32:00,52.0,13.0,-100.00,WSW,245,18.0,36.0,21,0.00,,,0.00,1212.000000,,2013-03-23 21:32:00,
2013-03-23 15:02:00,51.0,9.0,-100.00,WSW,245,20.0,33.0,18,0.00,,,0.00,1129.000000,,2013-03-23 22:02:00,
2013-03-23 15:12:00,51.0,9.0,-100.00,WSW,245,20.0,33.0,18,0.00,,,0.00,1129.000000,,2013-03-23 22:12:00,
2013-03-23 15:23:00,51.0,9.0,-100.00,WSW,245,20.0,33.0,18,0.00,,,0.00,1129.000000,,2013-03-23 22:23:00,
2013-03-23 15:32:00,51.0,9.0,-100.00,WSW,245,20.0,33.0,18,0.00,,,0.00,1129.000000,,2013-03-23 22:32:00,
2013-03-23 16:02:00,53.0,7.0,-100.00,WSW,252,11.0,30.0,15,0.00,,,0.00,962.000000,,2013-03-23 23:02:00,
2013-03-23 16:12:00,53.0,7.0,-100.00,WSW,252,11.0,30.0,15,0.00,,,0.00,962.000000,,2013-03-23 23:12:00,
2013-03-23 16:22:00,53.0,7.0,-100.00,WSW,252,11.0,30.0,15,0.00,,,0.00,962.000000,,2013-03-23 23:22:00,
2013-03-23 16:32:00,53.0,7.0,-100.00,WSW,252,11.0,30.0,15,0.00,,,0.00,962.000000,,2013-03-23 23:32:00,
2013-03-23 17:02:00,51.0,6.0,-100.00,WSW,250,11.0,29.0,16,0.00,,,0.00,715.000000,,2013-03-24 00:02:00,
2013-03-23 17:12:00,51.0,6.0,-100.00,WSW,250,11.0,29.0,16,0.00,,,0.00,715.000000,,2013-03-24 00:12:00,
2013-03-23 17:22:00,51.0,6.0,-100.00,WSW,250,11.0,29.0,16,0.00,,,0.00,715.000000,,2013-03-24 00:22:00,
2013-03-23 17:32:00,51.0,6.0,-100.00,WSW,250,11.0,29.0,16,0.00,,,0.00,715.000000,,2013-03-24 00:32:00,
2013-03-23 18:02:00,47.0,8.0,-100.00,WSW,241,14.0,24.0,20,0.00,,,0.00,419.000000,,2013-03-24 01:02:00,
2013-03-23 18:12:00,47.0,8.0,-100.00,WSW,241,14.0,24.0,20,0.00,,,0.00,419.000000,,2013-03-24 01:12:00,
2013-03-23 18:22:00,47.0,8.0,-100.00,WSW,241,14.0,24.0,20,0.00,,,0.00,419.000000,,2013-03-24 01:22:00,
2013-03-23 18:32:00,47.0,8.0,-100.00,WSW,241,14.0,24.0,20,0.00,,,0.00,419.000000,,2013-03-24 01:32:00,
2013-03-23 19:02:00,42.0,6.0,-100.00,WSW,256,12.0,29.0,22,0.00,,,0.00,118.000000,,2013-03-24 02:02:00,
2013-03-23 19:12:00,42.0,6.0,-100.00,WSW,256,12.0,29.0,22,0.00,,,0.00,118.000000,,2013-03-24 02:12:00,
2013-03-23 19:21:00,42.0,6.0,-100.00,WSW,256,12.0,29.0,22,0.00,,,0.00,118.000000,,2013-03-24 02:21:00,
2013-03-23 19:32:00,42.0,6.0,-100.00,WSW,256,12.0,29.0,22,0.00,,,0.00,118.000000,,2013-03-24 02:32:00,
2013-03-23 20:02:00,40.0,4.0,-100.00,WSW,256,10.0,22.0,22,0.00,,,0.00,1.000000,,2013-03-24 03:02:00,
2013-03-23 20:12:00,40.0,4.0,-100.00,WSW,256,10.0,22.0,22,0.00,,,0.00,1.000000,,2013-03-24 03:12:00,
2013-03-23 20:22:00,40.0,4.0,-100.00,WSW,256,10.0,22.0,22,0.00,,,0.00,1.000000,,2013-03-24 03:22:00,
2013-03-23 20:32:00,40.0,4.0,-100.00,WSW,256,10.0,22.0,22,0.00,,,0.00,1.000000,,2013-03-24 03:32:00,
2013-03-23 21:02:00,39.0,-1.0,-100.00,West,266,6.0,20.0,18,0.00,,,0.00,0.000000,,2013-03-24 04:02:00,
2013-03-23 21:12:00,39.0,-1.0,-100.00,West,266,6.0,20.0,18,0.00,,,0.00,0.000000,,2013-03-24 04:12:00,
2013-03-23 21:22:00,39.0,-1.0,-100.00,West,266,6.0,20.0,18,0.00,,,0.00,0.000000,,2013-03-24 04:22:00,
2013-03-23 21:32:00,39.0,-1.0,-100.00,West,266,6.0,20.0,18,0.00,,,0.00,0.000000,,2013-03-24 04:32:00,
2013-03-23 22:02:00,38.0,-2.0,-100.00,WNW,298,3.0,10.0,18,0.00,,,0.00,0.000000,,2013-03-24 05:02:00,
2013-03-23 22:12:00,38.0,-2.0,-100.00,WNW,298,3.0,10.0,18,0.00,,,0.00,0.000000,,2013-03-24 05:12:00,
2013-03-23 22:22:00,38.0,-2.0,-100.00,WNW,298,3.0,10.0,18,0.00,,,0.00,0.000000,,2013-03-24 05:22:00,
2013-03-23 22:32:00,38.0,-2.0,-100.00,WNW,298,3.0,10.0,18,0.00,,,0.00,0.000000,,2013-03-24 05:32:00,
2013-03-23 23:02:00,37.0,-3.0,-100.00,West,260,6.0,11.0,18,0.00,,,0.00,0.000000,,2013-03-24 06:02:00,
2013-03-23 23:12:00,37.0,-3.0,-100.00,West,260,6.0,11.0,18,0.00,,,0.00,0.000000,,2013-03-24 06:12:00,
2013-03-23 23:22:00,37.0,-3.0,-100.00,West,260,6.0,11.0,18,0.00,,,0.00,0.000000,,2013-03-24 06:22:00,
2013-03-23 23:32:00,37.0,-3.0,-100.00,West,260,6.0,11.0,18,0.00,,,0.00,0.000000,,2013-03-24 06:32:00,